STARLINK-1231, 45212

Orbit data source: Space-Track

STARLINK-1231, 45212 is a payload satellite owned by SpaceX/Seattle (US) in LEO that was launched on Mon, 17 Feb 2020 UTC via an FALCON 9 launch vehicle from the Air Force Eastern Test Range (AFETR). Payloads include a variety of satellites, spacecraft, and rockets equipped with specific instruments for various scientific and technological missions. These include communications satellites like Starlink; space stations such as the ISS; scientific satellites like the Hubble; Earth observation satellites from companies like Planet Labs, Umbra, and HawkEye 360; GPS; miniature CubeSats for education and research; and military/defense satellites.

Loading next visibility...
STARLINK-1231 details
Identifier
45212, 2020-012AL
Orbit
LEO
Last TLE update17 hours ago
Origin
Flag of USSpaceX/Seattle (US)
ManufacturerSpaceX/Seattle
MissionOperational Commercial Communications
Bus & MotorSTARLINK, Unknown motor
Mass260 kg wet, ~248 kg dry
Launch date (UTC)
2020-02-17 (5 years ago)
Launch vehicle
FALCON 9
Launch site
Air Force Eastern Test Range (AFETR)
Object type
Payload
Rocket body
Debris
Shape & HBRBox + 1 Pan, 8.86 m
Radar Cross Section13.562 m², Large (>1 m²)

Expand to show TLE details & history

TLE from 17 hours ago
0 STARLINK-1231
1 45212U 20012AL  24360.82384002  .00005916  00000-0  41560-3 0  9991
2 45212  53.0519 196.7608 0001690  80.2779 279.8400 15.06410719268926
Epoch: 2024-12-25T19:46Z
Definitive object data (Epoch: 2024-12-25T19:46:19.777Z)
Latitude-0.0001°
Longitude165.36627°
Altitude547.858 km
Speed7.589 km/s
True Right ascension13h 07m 02s
True Declination0° 00' 00"
Sunlit
Object was in daylight at TLE epoch
Visualization TLE readout
Latitude31.04531°
Longitude-44.48901°
Altitude548.383 km
Speed7.592 km/s
Apparent Right ascension23h 22m 23s
Apparent Declination-2° 44' 33"
Sunlit
Object is in daylight
Visualization observer readout
Local Sidereal Time11:40:18
Azimuth7.379° NNE
Elevation-52.605°
Doppler factor1
Orbital elements
Apogee altitude548.62 km
Perigee altitude546.279 km
Semi-major axis6,925.587 km
Eccentricity0.000169
Inclination53.0519°
RAAN196.7608°
Arg. of periapsis80.2779°
True anomaly279.82092°
Mean anomaly279.84°
Eccentric anomaly279.83046°
Mean motion3.76581 °/min
BSTAR0.0004156
Orbital period95.6 mins
Loading maneuver chart data...

STARLINK-1231 Visibility forecast

Observer location: undefined°, undefined

Span
Click to sort rows by Start time (UTC) header in descending order
Start Az.
Max El. time (UTC)
Max El. Az.
Max El.
End time (UTC)
End Az.
6 mins2024-12-26 15:01:48.968Z182.611° SSW2024-12-26 15:04:48.968Z127.408° SE23.749°2024-12-26 15:07:48.968Z75.558° E
6 mins2024-12-26 16:41:48.968Z264.208° W2024-12-26 16:43:48.968Z315.088° NNW34.956°2024-12-26 16:47:48.968Z39.656° NE
5 mins2024-12-26 21:43:48.968Z340.415° N2024-12-26 21:45:48.968Z27.443° NE27.918°2024-12-26 21:48:48.968Z88.049° E
6 mins2024-12-26 23:22:48.968Z289.618° WNW2024-12-26 23:25:48.968Z211.305° SW33.128°2024-12-26 23:28:48.968Z158.169° S
|